Theta_e
307 307 306 305 304 302 301 301 300 300 301 301 302 303 305 305 305 296 293 297 303 300 302 306 305 302 302 300 296 299 301 302 297 294 293 294 292 294 292 295 295 294 292 291 290 288 290 306 306 298 301 301 306 306
307 306 305 304 303 302 301 300 299 300 300 301 302 302 304 305 305 299 294 299 301 299 298 302 304 304 304 307 302 301 300 302 303 296 294 293 292 291 290 288 296 292 296 294 295 295 301 304 301 304 304 306 307 307
306 305 304 303 302 302 301 300 299 299 300 302 302 301 303 304 304 301 291 293 297 294 293 292 294 299 306 309 306 297 302 307 304 304 299 297 295 294 291 292 293 296 302 298 298 299 303 306 306 309 309 308 310 310
305 304 304 303 303 302 301 300 299 299 301 302 301 301 303 303 303 302 289 292 297 295 289 290 302 300 308 309 308 307 306 304 304 299 297 296 295 296 292 294 294 297 300 298 297 301 304 308 310 311 312 312 311 311
305 304 304 303 303 302 302 300 300 300 302 302 301 301 302 303 303 296 291 292 297 296 290 294 298 301 303 306 306 304 302 298 296 297 294 295 294 293 292 292 290 297 296 296 295 303 303 303 309 312 307 306 307 307
304 304 304 303 303 303 302 302 301 301 302 302 301 301 302 302 302 294 291 296 296 297 292 289 295 298 300 302 304 302 301 297 295 293 293 294 295 294 291 288 294 296 300 299 299 301 303 305 307 308 306 307 308 308
303 304 304 303 303 303 303 302 302 303 303 302 301 302 302 303 290 292 289 293 299 295 291 287 287 294 297 296 295 296 298 297 295 292 292 292 292 293 288 287 295 298 301 300 301 303 300 302 303 306 308 308 308 307
303 303 303 304 304 304 303 303 303 303 303 302 302 302 303 303 295 289 295 302 298 295 294 286 287 292 295 292 291 292 294 294 294 293 293 292 292 290 287 291 295 297 300 300 302 302 301 304 304 304 305 305 305 305
302 303 303 304 304 304 304 303 303 303 303 302 302 302 294 289 287 292 307 303 298 293 287 288 286 286 294 292 292 292 292 290 292 290 290 293 289 288 291 292 294 297 298 301 302 302 302 302 302 303 304 305 304 305
301 301 301 303 304 304 304 304 303 303 303 302 297 293 288 293 302 300 292 288 287 288 291 289 290 288 292 290 290 291 290 288 287 290 291 288 287 292 295 297 298 299 301 302 299 299 300 299 302 303 304 305 305 305
301 301 302 303 304 304 303 303 303 303 301 294 292 293 296 304 296 292 285 282 282 282 285 287 290 289 293 290 290 291 290 289 287 290 289 286 286 293 296 296 299 300 302 304 304 304 302 303 304 304 305 306 306 306
302 302 302 303 303 303 303 304 303 297 295 296 295 297 297 295 292 287 281 284 283 281 285 284 285 289 289 292 291 291 290 290 288 292 289 285 292 296 298 298 298 300 302 302 302 302 304 305 305 305 306 305 305 306
301 301 302 303 303 304 303 303 302 302 301 298 295 292 288 288 281 281 281 282 282 285 286 287 286 288 290 290 288 288 287 286 289 285 285 289 293 299 300 301 300 300 301 302 303 305 305 306 307 306 305 306 306 306
302 302 302 302 303 302 302 302 302 300 296 289 287 281 282 279 283 282 283 284 287 290 290 289 288 290 288 288 288 286 288 287 282 280 283 288 293 298 301 302 299 298 302 303 304 304 304 304 304 306 306 306 305 305
301 302 302 302 302 302 302 302 302 298 293 287 287 280 282 285 286 288 288 288 291 292 292 290 290 290 289 289 287 285 283 282 283 283 286 294 297 297 299 299 299 300 300 300 302 303 303 302 304 305 305 305 306 306
301 300 298 302 302 302 301 299 297 297 292 289 286 283 286 286 286 286 287 288 291 293 294 293 290 288 288 289 285 283 283 282 285 291 294 295 295 296 296 297 298 300 301 301 302 302 303 303 303 301 304 305 306 305
300 295 301 302 301 301 301 294 293 291 287 286 283 287 287 287 286 288 288 289 293 293 289 290 287 286 290 287 286 288 285 288 291 293 294 295 296 297 298 299 299 298 297 297 298 299 298 299 299 298 299 302 304 304
294 298 301 301 298 297 294 293 290 286 281 284 283 285 286 287 287 287 288 290 292 291 291 289 291 288 287 286 285 290 292 293 293 293 296 296 298 300 301 300 301 302 301 301 299 299 298 297 296 295 295 298 302 301
296 297 301 301 298 292 289 289 291 283 284 285 285 285 285 286 288 289 289 290 294 295 292 289 287 285 287 291 290 290 290 290 289 291 295 301 302 303 303 304 304 302 303 303 303 301 298 295 295 297 299 300 301 299
300 300 300 301 299 292 289 288 292 285 284 285 285 284 284 285 286 287 288 289 291 290 288 287 287 289 291 294 297 295 293 292 291 289 289 293 300 302 301 301 300 300 298 298 297 293 295 294 301 302 302 301 299 298
297 298 299 296 294 293 291 287 286 286 285 282 284 283 283 284 283 284 284 288 286 284 284 288 290 293 294 294 296 297 295 294 290 291 290 289 291 299 298 299 302 300 298 299 297 296 292 295 297 302 300 299 298 298
294 299 294 295 290 292 288 289 286 286 283 283 283 283 282 281 282 283 284 283 284 286 287 287 288 289 290 291 292 292 293 293 291 290 291 291 290 292 295 295 297 298 298 299 300 299 300 298 299 302 301 299 298 299
297 295 291 292 286 281 281 287 283 283 281 282 282 282 282 282 283 285 282 283 284 286 286 286 287 287 287 288 289 289 289 289 288 289 291 292 292 293 292 294 297 296 297 299 300 299 299 295 295 298 300 298 298 298
298 290 286 285 283 280 286 283 283 283 282 281 280 281 281 281 284 282 281 281 289 288 287 288 288 288 288 288 288 289 290 291 290 291 292 291 290 291 292 293 294 294 296 297 298 296 296 295 295 298 300 299 298 297
279 280 282 274 283 283 282 283 283 281 281 282 282 282 283 284 282 282 281 287 291 288 288 287 287 286 285 286 287 288 290 290 289 289 291 293 292 292 292 292 293 294 296 294 293 294 295 297 298 299 298 298 297 297
273 282 280 283 283 282 282 282 283 283 282 282 283 284 283 282 282 282 287 292 291 292 291 290 290 289 289 290 289 289 289 290 289 289 291 291 292 292 292 292 293 295 295 296 295 294 294 295 297 297 297 296 290 298
277 282 283 287 285 286 284 284 285 283 283 282 281 283 281 280 282 288 292 293 291 293 293 292 292 290 290 290 292 293 293 294 293 293 294 292 293 294 293 292 293 296 296 295 294 295 295 296 297 298 299 299 300 299
283 284 281 283 284 285 284 284 284 285 286 288 283 281 282 283 284 290 291 293 293 292 291 292 292 292 292 292 293 293 294 295 295 296 296 296 297 297 296 295 296 292 296 297 298 297 297 298 299 299 299 299 300 301
283 285 286 285 286 286 285 286 287 290 291 287 285 285 285 289 292 292 293 293 292 291 288 288 288 291 291 292 293 293 294 293 292 290 291 291 293 295 297 296 296 296 296 296 289 293 297 297 299 300 301 301 301 302
285 288 285 285 285 285 291 293 291 294 293 293 292 291 291 292 294 296 294 292 289 288 288 288 289 289 289 291 292 294 298 297 295 293 292 292 295 298 299 297 296 295 296 296 296 293 285 291 292 297 299 300 301 302
291 290 288 287 287 291 294 295 295 294 293 292 292 289 288 289 292 294 293 292 291 290 289 288 289 291 291 292 292 292 293 299 301 301 299 299 300 300 299 298 298 297 297 296 296 296 296 297 300 300 300 301 302 301
288 287 288 286 288 292 292 292 292 291 291 290 288 289 288 287 285 289 293 292 290 289 288 289 288 289 292 293 296 298 293 298 299 301 302 303 301 301 300 298 300 300 298 297 297 297 297 298 300 301 301 302 302 303
289 289 289 289 288 288 289 291 291 290 290 288 288 289 288 286 284 288 293 293 292 290 289 290 291 292 293 296 296 297 295 298 297 291 290 292 292 295 301 302 301 302 300 298 298 298 298 300 301 301 302 303 303 304
Wind_Speed
19 18 16 15 10 5 8 10 9 7 5 5 6 7 8 8 10 4 3 2 2 2 5 1 2 2 1 2 3 3 3 4 4 4 3 3 3 4 3 2 3 5 5 3 3 1 7 5 4 6 7 2 2 1
19 17 15 12 11 11 11 11 10 9 7 5 5 6 6 7 8 4 1 2 1 3 5 2 5 5 4 3 5 2 3 2 3 5 0 3 2 2 4 3 1 1 7 5 9 8 4 5 2 1 3 3 2 3
18 17 15 13 13 13 11 11 10 9 7 5 5 5 6 6 7 4 2 3 2 3 6 3 6 3 1 5 3 4 2 3 1 2 4 2 2 4 4 6 2 2 4 3 3 2 5 6 3 2 4 3 4 3
17 15 14 15 15 15 14 11 10 10 8 6 5 5 5 6 7 5 1 1 1 3 2 7 3 4 4 2 3 3 5 4 5 2 3 3 2 2 3 3 4 5 5 5 3 5 4 2 4 5 4 3 4 3
16 14 14 15 15 15 14 12 11 11 8 7 5 4 5 7 8 2 1 2 1 4 3 5 5 3 3 4 8 5 6 4 2 2 2 2 2 3 1 1 3 5 7 5 7 7 4 2 3 3 5 4 5 4
15 14 14 13 13 13 13 13 12 10 8 6 5 3 4 6 7 1 3 1 1 2 3 3 3 3 3 6 8 6 3 4 4 3 2 2 3 3 4 4 6 4 4 7 5 4 4 4 4 4 6 5 4 4
13 14 14 13 12 12 12 12 12 11 9 6 4 4 5 4 2 3 5 3 2 1 3 4 5 3 1 4 3 3 4 2 3 2 0 1 2 3 2 4 6 7 8 6 4 8 2 3 5 5 7 5 6 6
12 12 12 14 13 12 12 9 10 9 7 5 4 5 6 5 2 3 2 1 5 4 3 1 4 2 1 1 2 2 2 3 4 2 1 2 2 2 4 9 7 6 4 3 6 2 5 7 6 5 5 5 7 6
8 11 10 9 12 12 11 10 9 7 5 4 4 4 3 2 1 3 2 4 1 4 3 2 4 5 2 1 2 3 2 2 1 1 3 4 0 6 9 8 7 7 7 7 6 5 7 7 8 6 6 6 6 3
7 6 4 8 9 12 11 10 9 7 4 2 1 1 0 4 5 4 5 4 4 4 3 3 1 3 3 1 1 3 2 3 2 5 3 3 6 6 8 9 7 5 7 9 9 6 6 5 7 6 6 4 4 1
12 12 9 9 12 12 11 9 8 5 3 1 2 2 2 1 3 3 2 2 1 2 2 3 5 3 1 4 3 2 3 2 2 5 5 2 5 7 6 7 7 4 8 11 6 9 7 11 10 8 6 4 2 2
13 10 11 12 12 11 10 8 6 2 2 2 1 0 1 2 2 4 2 1 2 6 2 4 5 5 2 2 4 2 4 2 6 3 3 2 7 4 6 4 6 7 8 7 5 11 10 10 8 7 6 4 2 1
11 10 7 11 11 10 8 7 5 3 2 1 1 3 3 2 3 6 7 3 2 2 2 1 1 3 1 2 3 3 4 6 2 2 5 6 3 5 6 4 2 6 7 9 10 11 11 9 7 6 6 4 4 3
11 10 10 10 11 8 6 4 1 2 2 2 4 2 3 0 2 3 3 3 4 2 1 2 1 2 1 3 3 4 4 3 2 2 6 3 3 7 6 2 5 7 8 11 11 10 9 7 6 5 5 4 4 4
11 10 10 10 8 5 4 2 2 2 2 3 2 2 2 1 1 2 3 1 2 1 1 2 1 2 1 3 2 2 3 5 5 6 3 3 6 7 6 1 5 8 8 7 8 8 7 7 6 4 1 1 2 2
13 9 3 10 8 6 5 3 3 1 2 2 2 2 0 2 2 1 1 1 1 1 0 1 2 3 3 2 3 5 3 4 2 2 3 5 6 5 1 5 7 6 8 7 6 7 7 7 5 1 2 4 4 1
7 2 8 10 7 7 8 3 3 4 3 2 0 0 1 1 2 2 1 2 1 2 1 2 1 2 2 2 2 2 1 2 2 2 3 3 5 5 4 6 7 7 7 6 4 3 4 5 3 0 5 5 5 2
3 5 12 9 4 4 3 3 3 3 2 1 1 2 2 2 1 2 2 2 2 2 1 1 1 3 1 2 1 1 1 2 2 1 3 3 3 3 4 6 7 7 7 7 6 3 3 3 1 3 5 4 4 2
6 5 9 8 4 2 2 2 3 2 2 2 2 2 2 2 3 2 1 1 1 2 4 1 2 2 2 0 0 2 2 2 2 2 2 2 4 2 2 4 5 4 5 3 5 4 5 5 5 3 4 4 4 2
12 11 6 6 4 1 2 0 1 2 2 3 0 1 2 3 1 1 1 2 2 2 1 1 3 3 4 5 2 3 3 3 3 4 4 2 2 2 3 3 3 5 5 5 4 3 4 6 4 3 3 4 3 2
5 2 5 3 2 1 1 2 1 3 1 1 1 1 3 1 1 2 3 2 3 3 4 4 4 4 5 3 5 6 7 6 5 4 4 4 3 4 3 4 4 4 4 4 3 4 7 7 6 3 3 3 3 2
1 3 1 1 1 1 1 2 2 1 1 2 1 0 2 2 3 4 4 2 4 4 5 5 5 5 4 5 6 7 8 7 6 4 5 4 3 3 4 5 3 4 4 5 3 1 7 6 3 3 3 3 3 2
3 1 1 0 0 2 3 1 1 2 0 2 2 1 2 2 3 1 2 3 3 2 1 1 2 1 4 4 3 4 3 5 4 4 5 5 5 5 4 5 7 7 5 6 6 6 7 8 4 5 4 4 3 3
1 1 1 1 2 1 2 1 1 1 1 1 1 3 3 3 1 1 3 0 1 2 3 3 4 3 3 3 2 2 3 1 3 4 4 4 4 6 6 7 6 8 9 8 8 7 7 5 4 5 5 4 4 4
4 3 3 4 1 1 1 2 1 0 2 2 2 3 3 1 1 2 1 2 2 1 2 3 3 2 2 3 4 4 5 4 4 6 5 4 3 4 4 5 6 7 5 5 6 6 5 4 6 6 6 7 7 7
2 2 3 1 1 2 1 1 2 3 2 2 4 3 3 1 1 1 1 2 1 2 3 3 4 6 6 6 9 8 6 4 4 6 8 6 6 7 7 6 5 7 6 8 7 7 7 6 6 7 7 8 7 7
2 1 2 2 1 1 2 2 2 1 2 2 2 3 3 2 1 2 2 2 2 2 4 5 6 7 9 9 9 9 10 9 8 9 6 5 6 7 7 8 10 7 1 3 5 7 7 7 7 7 7 5 8 9
3 1 2 2 2 2 2 2 3 3 3 2 2 1 1 1 1 2 2 2 4 6 7 7 7 8 9 9 8 8 9 8 10 10 9 10 10 9 9 9 9 14 8 6 5 4 4 5 5 6 8 8 8 9
2 2 1 4 2 0 1 1 2 2 2 2 2 2 2 1 1 2 1 3 5 5 7 7 8 6 8 8 9 9 9 9 10 14 15 12 9 10 8 9 9 9 8 9 8 9 8 6 6 6 8 7 7 7
2 1 1 2 1 2 2 2 0 1 2 1 2 1 1 1 1 2 3 6 7 8 8 9 9 8 9 9 10 11 8 9 11 12 12 12 13 9 7 9 9 9 8 9 9 5 4 3 2 2 4 4 5 7
2 1 1 1 1 0 0 1 2 1 1 1 2 1 2 2 2 1 3 5 7 8 8 10 11 9 9 10 10 12 13 9 11 15 16 12 10 7 5 6 7 7 7 9 9 9 7 5 5 6 8 9 10 9
2 1 1 1 1 1 1 3 3 1 1 1 2 3 3 2 2 2 3 6 9 11 13 12 11 14 14 11 12 12 14 12 11 11 14 7 5 7 6 6 6 6 7 7 9 9 10 10 8 8 9 10 10 11
2 3 3 1 1 2 2 3 4 2 1 1 1 1 3 3 3 3 3 2 7 10 11 11 12 12 15 17 15 15 14 11 14 8 6 7 7 6 5 4 5 6 9 8 10 10 13 13 10 10 10 9 9 8
Wind_Direction
177 183 179 187 188 182 223 230 241 251 282 295 320 336 346 5 5 49 271 247 127 170 274 267 322 147 64 90 146 277 45 347 39 72 121 202 144 210 108 199 185 181 153 206 98 140 273 164 82 165 214 218 188 175
173 176 182 182 167 189 215 222 229 239 250 269 295 316 337 358 3 52 319 342 319 153 243 294 270 261 239 196 143 1 167 152 176 89 108 110 126 92 156 224 72 234 182 189 171 216 259 277 255 268 155 144 181 142
173 182 183 168 187 192 202 219 224 230 233 247 276 300 324 344 357 16 236 298 30 51 318 20 263 336 132 198 173 117 295 179 107 162 152 159 153 126 159 239 171 248 156 168 74 269 260 274 270 186 179 172 167 128
182 185 184 180 193 190 193 208 217 224 222 232 256 287 310 332 339 358 207 268 93 105 128 281 324 280 313 159 102 106 134 57 98 82 108 133 155 147 200 204 174 194 123 161 252 273 278 274 206 170 144 106 101 92
184 185 185 189 193 197 189 193 214 218 219 230 243 272 307 326 330 331 225 242 207 134 206 272 298 293 330 122 90 74 89 91 64 59 76 208 143 113 316 46 261 182 175 159 217 220 158 195 163 151 121 112 124 121
180 183 184 187 191 194 196 192 203 212 217 219 238 273 306 327 350 37 23 313 351 136 91 336 298 332 69 71 80 73 70 85 82 115 216 280 268 117 185 227 261 218 206 177 216 155 174 154 118 124 126 125 120 84
178 181 179 181 183 185 177 183 192 201 210 214 237 269 291 320 73 147 188 225 139 91 92 316 331 308 42 91 42 46 33 80 104 120 45 201 296 93 104 210 250 229 221 186 156 119 93 200 171 122 115 104 81 63
173 173 178 182 175 177 179 186 179 183 191 213 237 270 294 312 331 341 289 331 140 95 76 155 269 7 327 87 87 353 76 27 13 143 54 192 353 60 262 246 253 269 272 265 197 231 176 125 112 97 84 87 73 52
166 176 171 165 177 177 178 180 181 179 196 220 256 292 33 40 95 231 138 90 56 128 161 134 165 218 5 70 100 36 75 83 309 167 240 109 272 226 226 232 240 227 190 193 146 133 125 118 123 105 99 81 87 36
183 196 183 198 197 176 172 180 176 177 187 227 115 116 4 229 227 81 17 32 13 343 42 201 132 244 100 38 13 94 23 165 171 243 108 143 253 251 247 226 236 240 194 140 117 127 127 127 133 124 112 113 105 321
181 187 203 169 150 148 150 160 165 154 101 121 173 164 237 302 64 37 78 119 319 293 192 238 187 171 278 126 166 191 174 167 163 251 144 226 273 250 263 222 216 218 179 190 172 158 144 138 140 134 131 128 121 11
169 159 168 157 145 148 151 152 150 132 180 166 164 326 10 61 65 123 213 336 181 223 230 174 221 196 236 110 108 217 158 95 229 142 121 228 252 284 311 274 215 182 167 164 142 124 124 128 136 139 142 147 122 31
131 135 157 147 146 139 137 146 174 212 112 102 102 73 93 312 68 171 183 224 237 215 236 221 225 173 36 65 76 120 158 217 80 128 216 225 286 321 317 271 145 164 147 122 118 123 127 131 139 141 155 159 135 85
131 131 133 132 127 123 124 148 188 168 120 125 139 132 171 258 247 182 167 188 245 172 289 180 200 172 190 104 133 156 218 113 209 173 225 250 283 307 312 283 141 153 142 134 129 126 129 139 141 157 128 138 114 65
140 133 121 121 121 109 111 82 31 68 116 93 68 154 154 218 238 211 234 328 275 288 104 113 74 125 166 137 192 104 155 243 197 210 241 296 302 300 290 135 133 137 121 111 120 127 133 135 148 132 190 199 150 131
119 101 106 130 115 85 43 39 38 86 75 77 84 83 269 91 331 9 2 27 300 312 64 27 155 149 191 160 145 217 168 217 231 242 284 314 316 312 244 114 103 103 113 128 140 153 144 149 112 200 255 248 248 228
72 78 144 121 104 59 35 67 30 50 92 87 348 40 137 189 229 265 290 270 268 56 77 58 164 144 336 172 174 38 183 239 276 313 306 314 342 15 30 89 91 101 103 104 107 114 84 94 115 213 260 253 241 216
68 127 126 118 86 33 17 35 73 86 76 220 144 259 196 216 196 276 246 284 82 116 113 159 86 51 39 113 159 225 249 258 212 262 306 318 344 8 53 76 77 81 78 59 39 356 96 158 314 355 268 247 224 225
126 121 125 81 54 87 66 16 62 68 255 226 235 231 207 247 244 256 245 360 48 119 112 114 125 152 179 228 359 8 348 342 324 314 297 327 322 12 70 89 86 60 54 46 70 42 331 303 276 238 202 194 220 247
97 112 121 38 43 73 97 39 89 154 237 231 148 230 209 213 277 214 207 162 129 105 92 269 204 195 188 176 148 283 288 300 345 344 321 328 295 206 175 110 134 125 72 27 24 298 261 282 272 238 217 209 209 250
59 35 42 20 6 39 337 148 214 216 260 211 244 173 240 327 241 205 211 138 94 183 205 215 211 228 218 216 188 201 209 193 212 217 247 286 260 212 223 231 208 178 171 168 158 229 238 239 258 233 209 235 227 211
56 92 74 1 348 202 272 226 195 249 159 245 335 52 267 249 233 218 140 129 200 218 198 194 214 208 205 217 220 213 226 224 230 232 253 232 236 203 238 236 204 216 205 210 202 288 308 286 258 235 228 228 200 221
127 68 14 355 312 51 263 69 33 1 332 293 359 282 249 250 228 116 193 203 238 300 285 237 310 282 233 276 255 256 247 231 240 234 242 235 237 246 229 218 208 208 209 218 212 214 208 254 229 224 196 204 182 203
135 62 33 21 122 286 337 359 19 350 304 282 241 261 235 229 150 145 231 185 92 337 34 28 22 6 8 6 332 288 289 267 268 275 249 251 248 252 224 238 225 211 213 221 223 220 227 229 192 206 194 192 192 194
64 330 89 322 237 352 327 321 250 252 254 229 243 263 256 109 212 238 196 142 142 1 345 358 359 340 278 278 274 257 244 219 231 251 256 221 247 286 272 240 242 236 206 196 215 204 220 194 191 192 199 196 188 196
76 247 139 248 219 198 243 275 223 231 228 256 239 277 4 19 275 287 63 63 50 4 358 329 322 311 296 280 283 283 276 212 231 244 259 218 227 231 247 257 266 272 198 212 212 203 211 202 199 189 205 202 197 188
6 313 253 236 245 269 281 261 249 163 253 236 306 333 0 290 324 73 69 47 356 328 309 286 275 271 274 278 271 271 274 268 237 253 255 233 226 223 226 235 238 248 225 194 208 202 199 198 199 203 212 185 197 199
241 277 266 290 281 209 244 321 0 4 13 15 9 357 246 291 349 23 12 14 345 311 302 293 285 278 277 277 274 272 265 256 253 252 253 255 246 243 233 235 237 243 243 255 250 238 206 197 191 194 200 209 203 193
266 248 254 291 286 61 115 74 16 355 47 26 343 316 338 327 311 341 338 345 328 314 307 306 303 296 279 268 260 255 252 249 244 240 238 248 248 240 217 226 231 234 236 229 212 225 211 205 212 208 212 212 202 183
320 15 317 308 1 32 31 55 120 81 189 273 330 286 273 338 2 50 359 336 331 322 305 293 288 288 289 291 291 285 263 241 229 234 242 242 244 247 212 202 216 223 218 218 214 168 166 189 225 206 194 178 184 191
310 311 34 340 315 248 57 52 116 137 82 90 358 6 346 317 315 346 319 325 319 316 321 325 321 315 305 303 301 299 295 282 272 245 231 238 238 230 195 195 208 205 202 203 209 206 187 181 184 180 186 188 194 189
177 214 271 281 255 234 263 183 184 236 179 49 17 355 354 325 313 303 301 330 334 338 332 328 322 315 313 306 298 291 279 287 283 267 254 238 210 192 198 199 199 194 193 196 200 204 195 192 179 185 190 192 192 188
210 176 198 236 264 245 230 184 195 205 126 52 71 36 3 329 336 312 309 317 328 331 326 320 314 310 307 310 303 305 300 288 283 253 202 176 185 192 201 204 207 211 206 190 191 189 189 186 170 175 172 177 181 182